Location: Unspecified
(48.5670°N, 0.0000°E)
Time: 09:04:57
(UTC+00:00)

OTV 5 (USA 277) - Pass Details

Date: 20 June 2019
Orbit: 299 x 335 km, 54.5° (Epoch: 13 July)

Event Time Altitude Azimuth Distance (km) Brightness Sun altitude
Exits shadow 23:12:15 - 253° (WSW) 1,323 ? -17.2°
Reaches altitude 10° 23:12:23 10° 253° (WSW) 1,270 ? -17.2°
Maximum altitude 23:15:10 58° 334° (NNW) 395 ? -17.3°
Drops below altitude 10° 23:17:57 10° 56° (NE) 1,268 ? -17.3°
Enters shadow 00:29:37 -37° 262° (W) 8,122 ? -17.7°
